| time (UTC) | temp C | wind direction | speed KPH | gust KPH | rain 1hr cm | rain 24hr cm | rain mn cm | humidity % | barometer mb |
| 20260906213009 | 20 | 184 | 0.0 | 1.6 | 0.00 | 0.00 | 0.00 | 61 | 1020.0 |
| 20260906212502 | 20 | 191 | 0.0 | 0.0 | 0.00 | 0.00 | 0.00 | 62 | 1020.2 |
| 20260906211958 | 20 | 248 | 4.8 | 6.4 | 0.00 | 0.00 | 0.00 | 64 | 1020.2 |
| 20260906211452 | 20 | 211 | 1.6 | 1.6 | 0.00 | 0.00 | 0.00 | 68 | 1020.1 |
| 20260906210947 | 21 | 204 | 0.0 | 0.0 | 0.00 | 0.00 | 0.00 | 66 | 1019.9 |
| 20260906210442 | 21 | 242 | 1.6 | 3.2 | 0.00 | 0.00 | 0.00 | 64 | 1020.0 |
| 20260906205936 | 21 | 204 | 1.6 | 1.6 | 0.00 | 0.00 | 0.00 | 62 | 1020.0 |
| 20260906205432 | 21 | 261 | 0.0 | 1.6 | 0.00 | 0.00 | 0.00 | 63 | 1019.8 |
| 20260906204928 | 21 | 202 | 1.6 | 1.6 | 0.00 | 0.00 | 0.00 | 65 | 1019.8 |
| 20260906204428 | 20 | 195 | 0.0 | 0.0 | 0.00 | 0.00 | 0.00 | 68 | 1020.0 |
| 20260906203927 | 20 | 199 | 0.0 | 1.6 | 0.00 | 0.00 | 0.00 | 68 | 1019.9 |
| 20260906203422 | 21 | 177 | 1.6 | 1.6 | 0.00 | 0.00 | 0.00 | 67 | 1019.9 |
| 20260906202920 | 21 | 192 | 0.0 | 0.0 | 0.00 | 0.00 | 0.00 | 66 | 1019.8 |
| 20260906202419 | 20 | 200 | 0.0 | 1.6 | 0.00 | 0.00 | 0.00 | 68 | 1019.9 |
| 20260906201914 | 21 | 1 | 1.6 | 4.8 | 0.00 | 0.00 | 0.00 | 66 | 1019.7 |
| 20260906201408 | 21 | 223 | 4.8 | 6.4 | 0.00 | 0.00 | 0.00 | 66 | 1019.6 |
| 20260906200903 | 22 | 258 | 6.4 | 9.7 | 0.00 | 0.00 | 0.00 | 61 | 1019.8 |
| 20260906200359 | 22 | 195 | 0.0 | 1.6 | 0.00 | 0.00 | 0.00 | 66 | 1019.6 |
| 20260906195854 | 23 | 162 | 3.2 | 3.2 | 0.00 | 0.00 | 0.00 | 63 | 1019.8 |
| 20260906195350 | 22 | 197 | 1.6 | 3.2 | 0.00 | 0.00 | 0.00 | 65 | 1019.9 |
| 20260906194846 | 22 | 204 | 3.2 | 3.2 | 0.00 | 0.00 | 0.00 | 63 | 1019.7 |
| 20260906194342 | 22 | 182 | 3.2 | 3.2 | 0.00 | 0.00 | 0.00 | 65 | 1019.6 |
| 20260906193837 | 22 | 222 | 1.6 | 1.6 | 0.00 | 0.00 | 0.00 | 65 | 1019.5 |
| 20260906193332 | 21 | 212 | 1.6 | 1.6 | 0.00 | 0.00 | 0.00 | 66 | 1019.7 |
| 20260906192827 | 21 | 197 | 1.6 | 3.2 | 0.00 | 0.00 | 0.00 | 64 | 1019.7 |
| 20260906192322 | 22 | 185 | 0.0 | 1.6 | 0.00 | 0.00 | 0.00 | 63 | 1019.4 |
| 20260906191821 | 22 | 222 | 3.2 | 4.8 | 0.00 | 0.00 | 0.00 | 59 | 1019.7 |
| 20260906191315 | 21 | 203 | 1.6 | 1.6 | 0.00 | 0.00 | 0.00 | 62 | 1019.5 |
| 20260906190809 | 23 | 203 | 1.6 | 1.6 | 0.00 | 0.00 | 0.00 | 59 | 1019.7 |
| 20260906190308 | 23 | 184 | 1.6 | 3.2 | 0.00 | 0.00 | 0.00 | 58 | 1019.6 |
| 20260906185803 | 21 | 192 | 0.0 | 0.0 | 0.00 | 0.00 | 0.00 | 61 | 1019.4 |
| 20260906185305 | 22 | 209 | 1.6 | 1.6 | 0.00 | 0.00 | 0.00 | 60 | 1019.6 |
| 20260906184756 | 22 | 221 | 3.2 | 3.2 | 0.00 | 0.00 | 0.00 | 65 | 1019.6 |
| 20260906184251 | 22 | 184 | 0.0 | 0.0 | 0.00 | 0.00 | 0.00 | 62 | 1019.6 |
| 20260906183747 | 23 | 217 | 1.6 | 1.6 | 0.00 | 0.00 | 0.00 | 65 | 1019.5 |
| 20260906183243 | 23 | 176 | 1.6 | 1.6 | 0.00 | 0.00 | 0.00 | 63 | 1019.6 |
| 20260906182738 | 23 | 208 | 3.2 | 3.2 | 0.00 | 0.00 | 0.00 | 62 | 1019.7 |
| 20260906182234 | 22 | 196 | 0.0 | 0.0 | 0.00 | 0.00 | 0.00 | 63 | 1019.5 |
| 20260906181729 | 22 | 353 | 3.2 | 4.8 | 0.00 | 0.00 | 0.00 | 65 | 1019.7 |
| 20260906181225 | 23 | 200 | 1.6 | 1.6 | 0.00 | 0.00 | 0.00 | 68 | 1019.6 |
| 20260906180719 | 22 | 186 | 1.6 | 1.6 | 0.00 | 0.00 | 0.00 | 65 | 1019.7 |
| 20260906180214 | 22 | 199 | 1.6 | 1.6 | 0.00 | 0.00 | 0.00 | 67 | 1019.8 |
| 20260906175712 | 22 | 25 | 1.6 | 3.2 | 0.00 | 0.00 | 0.00 | 62 | 1019.8 |
| 20260906175208 | 21 | 187 | 0.0 | 0.0 | 0.00 | 0.00 | 0.00 | 66 | 1019.7 |
| 20260906174706 | 21 | 201 | 1.6 | 1.6 | 0.00 | 0.00 | 0.00 | 69 | 1019.7 |
| 20260906174201 | 22 | 40 | 3.2 | 3.2 | 0.00 | 0.00 | 0.00 | 68 | 1019.8 |
| 20260906173656 | 22 | 192 | 0.0 | 0.0 | 0.00 | 0.00 | 0.00 | 65 | 1019.8 |
| 20260906173152 | 22 | 183 | 0.0 | 0.0 | 0.00 | 0.00 | 0.00 | 68 | 1020.0 |
| 20260906172651 | 22 | 194 | 0.0 | 1.6 | 0.00 | 0.00 | 0.00 | 66 | 1019.7 |
| 20260906172147 | 22 | 176 | 0.0 | 0.0 | 0.00 | 0.00 | 0.00 | 64 | 1019.9 |
| 20260906171646 | 22 | 245 | 3.2 | 4.8 | 0.00 | 0.00 | 0.00 | 67 | 1019.6 |
| 20260906171142 | 22 | 194 | 0.0 | 0.0 | 0.00 | 0.00 | 0.00 | 68 | 1019.7 |
| 20260906170638 | 21 | 194 | 0.0 | 0.0 | 0.00 | 0.00 | 0.00 | 71 | 1019.6 |
| 20260906170137 | 21 | 200 | 1.6 | 3.2 | 0.00 | 0.00 | 0.00 | 73 | 1019.9 |
| 20260906165634 | 21 | 187 | 1.6 | 1.6 | 0.00 | 0.00 | 0.00 | 71 | 1019.7 |
| 20260906165129 | 21 | 192 | 3.2 | 4.8 | 0.00 | 0.00 | 0.00 | 72 | 1019.8 |
| 20260906164627 | 20 | 192 | 3.2 | 3.2 | 0.00 | 0.00 | 0.00 | 72 | 1019.9 |
| 20260906164123 | 21 | 174 | 3.2 | 4.8 | 0.00 | 0.00 | 0.00 | 71 | 1019.8 |
| 20260906163620 | 22 | 197 | 0.0 | 0.0 | 0.00 | 0.00 | 0.00 | 69 | 1019.8 |
| 20260906163115 | 21 | 183 | 0.0 | 0.0 | 0.00 | 0.00 | 0.00 | 71 | 1019.7 |
| 20260906162612 | 21 | 197 | 1.6 | 1.6 | 0.00 | 0.00 | 0.00 | 75 | 1019.7 |
| 20260906162106 | 21 | 200 | 1.6 | 3.2 | 0.00 | 0.00 | 0.00 | 75 | 1019.6 |
| 20260906161601 | 20 | 314 | 1.6 | 3.2 | 0.00 | 0.00 | 0.00 | 74 | 1019.8 |
| 20260906161100 | 20 | 216 | 1.6 | 1.6 | 0.00 | 0.00 | 0.00 | 76 | 1019.8 |
| 20260906160559 | 20 | 192 | 1.6 | 3.2 | 0.00 | 0.00 | 0.00 | 74 | 1019.9 |
| 20260906160058 | 20 | 17 | 3.2 | 4.8 | 0.00 | 0.00 | 0.00 | 74 | 1019.7 |
| 20260906155555 | 20 | 186 | 0.0 | 0.0 | 0.00 | 0.00 | 0.00 | 77 | 1019.7 |
| 20260906155052 | 21 | 189 | 0.0 | 1.6 | 0.00 | 0.00 | 0.00 | 74 | 1019.5 |
| 20260906154547 | 21 | 209 | 0.0 | 0.0 | 0.00 | 0.00 | 0.00 | 74 | 1019.5 |
| 20260906154046 | 20 | 182 | 3.2 | 3.2 | 0.00 | 0.00 | 0.00 | 76 | 1019.6 |
| 20260906153544 | 20 | 189 | 3.2 | 3.2 | 0.00 | 0.00 | 0.00 | 77 | 1019.7 |
| 20260906153040 | 20 | 231 | 4.8 | 6.4 | 0.00 | 0.00 | 0.00 | 77 | 1019.7 |
| 20260906152539 | 20 | 193 | 1.6 | 1.6 | 0.00 | 0.00 | 0.00 | 79 | 1019.6 |
| 20260906152038 | 20 | 193 | 0.0 | 0.0 | 0.00 | 0.00 | 0.00 | 80 | 1019.8 |
| 20260906151534 | 20 | 189 | 3.2 | 4.8 | 0.00 | 0.00 | 0.00 | 78 | 1019.6 |
| 20260906151029 | 20 | 209 | 1.6 | 1.6 | 0.00 | 0.00 | 0.00 | 81 | 1019.3 |
| 20260906150525 | 21 | 251 | 1.6 | 6.4 | 0.00 | 0.00 | 0.00 | 81 | 1019.5 |
| 20260906150020 | 20 | 195 | 1.6 | 1.6 | 0.00 | 0.00 | 0.00 | 84 | 1019.4 |
| 20260906145518 | 19 | 246 | 0.0 | 1.6 | 0.00 | 0.00 | 0.00 | 85 | 1019.6 |
| 20260906145014 | 18 | 168 | 0.0 | 0.0 | 0.00 | 0.00 | 0.00 | 86 | 1019.6 |
| 20260906144508 | 18 | 200 | 0.0 | 0.0 | 0.00 | 0.00 | 0.00 | 87 | 1019.4 |
| 20260906144003 | 18 | 153 | 1.6 | 1.6 | 0.00 | 0.00 | 0.00 | 87 | 1019.4 |
| 20260906143458 | 18 | 172 | 0.0 | 1.6 | 0.00 | 0.00 | 0.00 | 87 | 1019.3 |
| 20260906142954 | 18 | 195 | 1.6 | 1.6 | 0.00 | 0.00 | 0.00 | 86 | 1019.3 |
| 20260906142448 | 18 | 264 | 1.6 | 3.2 | 0.00 | 0.00 | 0.00 | 88 | 1019.6 |
| 20260906141943 | 18 | 193 | 1.6 | 3.2 | 0.00 | 0.00 | 0.00 | 87 | 1019.4 |
| 20260906141443 | 18 | 304 | 1.6 | 3.2 | 0.00 | 0.00 | 0.00 | 89 | 1019.5 |
| 20260906140938 | 18 | 184 | 0.0 | 1.6 | 0.00 | 0.00 | 0.00 | 90 | 1019.5 |
| 20260906140432 | 18 | 190 | 0.0 | 1.6 | 0.00 | 0.00 | 0.00 | 90 | 1019.4 |
| 20260906135925 | 18 | 186 | 0.0 | 0.0 | 0.00 | 0.00 | 0.00 | 90 | 1019.3 |
| 20260906135424 | 18 | 183 | 0.0 | 1.6 | 0.00 | 0.00 | 0.00 | 90 | 1019.0 |
| 20260906134920 | 18 | 284 | 1.6 | 1.6 | 0.00 | 0.00 | 0.00 | 90 | 1019.1 |
| 20260906134415 | 18 | 193 | 0.0 | 0.0 | 0.00 | 0.00 | 0.00 | 91 | 1019.2 |
| 20260906133909 | 18 | 199 | 1.6 | 1.6 | 0.00 | 0.00 | 0.00 | 91 | 1019.1 |
| 20260906133405 | 17 | 172 | 0.0 | 1.6 | 0.00 | 0.00 | 0.00 | 93 | 1018.9 |
| 20260906132901 | 17 | 185 | 0.0 | 0.0 | 0.00 | 0.00 | 0.00 | 94 | 1019.1 |
| 20260906132355 | 17 | 195 | 1.6 | 3.2 | 0.00 | 0.00 | 0.00 | 94 | 1019.0 |
| 20260906131851 | 17 | 189 | 1.6 | 1.6 | 0.00 | 0.00 | 0.00 | 96 | 1019.1 |
| 20260906131347 | 17 | 205 | 3.2 | 3.2 | 0.00 | 0.00 | 0.00 | 98 | 1018.9 |
| 20260906130842 | 17 | 165 | 1.6 | 1.6 | 0.00 | 0.00 | 0.00 | 99 | 1019.1 |
| 20260906130342 | 17 | 189 | 0.0 | 0.0 | 0.00 | 0.00 | 0.00 | 99 | 1019.0 |
| 20260906125841 | 16 | 195 | 1.6 | 1.6 | 0.00 | 0.00 | 0.00 | 99 | 1018.9 |
| 20260906125338 | 16 | 230 | 1.6 | 1.6 | 0.00 | 0.00 | 0.00 | 99 | 1019.1 |
| 20260906124833 | 16 | 222 | 4.8 | 4.8 | 0.00 | 0.00 | 0.00 | 99 | 1019.0 |
| 20260906124329 | 16 | 224 | 3.2 | 3.2 | 0.00 | 0.00 | 0.00 | 99 | 1018.8 |
| 20260906123828 | 16 | 201 | 1.6 | 1.6 | 0.00 | 0.00 | 0.00 | 99 | 1018.8 |
| 20260906123323 | 16 | 214 | 0.0 | 1.6 | 0.00 | 0.00 | 0.00 | 99 | 1018.7 |
| 20260906122823 | 16 | 183 | 0.0 | 0.0 | 0.00 | 0.00 | 0.00 | 99 | 1019.0 |
| 20260906122318 | 16 | 194 | 0.0 | 0.0 | 0.00 | 0.00 | 0.00 | 99 | 1018.7 |
| 20260906121815 | 16 | 197 | 0.0 | 0.0 | 0.00 | 0.00 | 0.00 | 99 | 1018.8 |
| 20260906121311 | 16 | 195 | 0.0 | 0.0 | 0.00 | 0.00 | 0.00 | 99 | 1018.6 |
| 20260906120807 | 16 | 194 | 0.0 | 0.0 | 0.00 | 0.00 | 0.00 | 99 | 1018.6 |
| 20260906120303 | 15 | 194 | 0.0 | 0.0 | 0.00 | 0.00 | 0.00 | 99 | 1018.7 |
| 20260906115759 | 15 | 194 | 0.0 | 0.0 | 0.00 | 0.00 | 0.00 | 99 | 1018.7 |
| 20260906115254 | 15 | 189 | 0.0 | 0.0 | 0.00 | 0.00 | 0.00 | 99 | 1018.7 |
| 20260906114753 | 15 | 187 | 0.0 | 0.0 | 0.00 | 0.00 | 0.00 | 99 | 1018.3 |
| 20260906114248 | 15 | 192 | 0.0 | 0.0 | 0.00 | 0.00 | 0.00 | 99 | 1018.4 |
| 20260906113743 | 15 | 192 | 0.0 | 0.0 | 0.00 | 0.00 | 0.00 | 99 | 1018.2 |
| 20260906113242 | 15 | 191 | 0.0 | 0.0 | 0.00 | 0.00 | 0.00 | 99 | 1018.2 |
| 20260906112737 | 15 | 192 | 0.0 | 0.0 | 0.00 | 0.00 | 0.00 | 99 | 1018.0 |
| 20260906112233 | 14 | 180 | 0.0 | 0.0 | 0.00 | 0.00 | 0.00 | 99 | 1018.1 |
| 20260906111733 | 14 | 180 | 0.0 | 0.0 | 0.00 | 0.00 | 0.00 | 99 | 1018.0 |
| 20260906111227 | 13 | 180 | 0.0 | 0.0 | 0.00 | 0.00 | 0.00 | 99 | 1018.2 |
| 20260906110722 | 13 | 180 | 0.0 | 0.0 | 0.00 | 0.00 | 0.00 | 99 | 1018.0 |
| 20260906110219 | 13 | 180 | 0.0 | 0.0 | 0.00 | 0.00 | 0.00 | 99 | 1018.0 |
| 20260906105717 | 13 | 180 | 0.0 | 0.0 | 0.00 | 0.00 | 0.00 | 99 | 1017.9 |
| 20260906105214 | 13 | 180 | 0.0 | 0.0 | 0.00 | 0.00 | 0.00 | 99 | 1017.7 |
| 20260906104713 | 13 | 180 | 0.0 | 0.0 | 0.00 | 0.00 | 0.00 | 99 | 1017.9 |
| 20260906104212 | 13 | 180 | 0.0 | 0.0 | 0.00 | 0.00 | 0.00 | 99 | 1018.0 |
| 20260906103710 | 13 | 180 | 0.0 | 0.0 | 0.00 | 0.00 | 0.00 | 99 | 1017.9 |
| 20260906103205 | 14 | 180 | 0.0 | 0.0 | 0.00 | 0.00 | 0.00 | 99 | 1017.8 |
| 20260906102701 | 14 | 180 | 0.0 | 0.0 | 0.00 | 0.00 | 0.00 | 99 | 1017.7 |
| 20260906102159 | 14 | 180 | 0.0 | 0.0 | 0.00 | 0.00 | 0.00 | 99 | 1017.8 |
| 20260906101654 | 14 | 180 | 0.0 | 0.0 | 0.00 | 0.00 | 0.00 | 99 | 1017.8 |
| 20260906101149 | 14 | 180 | 0.0 | 0.0 | 0.00 | 0.00 | 0.00 | 99 | 1017.7 |
| 20260906100644 | 14 | 180 | 0.0 | 0.0 | 0.00 | 0.00 | 0.00 | 99 | 1017.5 |
| 20260906100139 | 14 | 180 | 0.0 | 0.0 | 0.00 | 0.00 | 0.00 | 99 | 1017.6 |
| 20260906095634 | 15 | 180 | 0.0 | 0.0 | 0.00 | 0.00 | 0.00 | 99 | 1017.7 |
| 20260906095129 | 15 | 180 | 0.0 | 0.0 | 0.00 | 0.00 | 0.00 | 99 | 1017.6 |
| 20260906094628 | 15 | 180 | 0.0 | 0.0 | 0.00 | 0.00 | 0.00 | 99 | 1017.5 |
| 20260906094124 | 15 | 180 | 0.0 | 0.0 | 0.00 | 0.00 | 0.00 | 99 | 1017.3 |
| 20260906093620 | 14 | 180 | 0.0 | 0.0 | 0.00 | 0.00 | 0.00 | 99 | 1017.3 |
| 20260906093114 | 14 | 180 | 0.0 | 0.0 | 0.00 | 0.00 | 0.00 | 99 | 1017.1 |
| 20260906092609 | 14 | 180 | 0.0 | 0.0 | 0.00 | 0.00 | 0.00 | 99 | 1017.2 |
| 20260906092105 | 14 | 180 | 0.0 | 0.0 | 0.00 | 0.00 | 0.00 | 99 | 1017.2 |
| 20260906091600 | 14 | 180 | 0.0 | 0.0 | 0.00 | 0.00 | 0.00 | 99 | 1017.1 |
| 20260906091057 | 15 | 180 | 0.0 | 0.0 | 0.00 | 0.00 | 0.00 | 99 | 1017.0 |
| 20260906090557 | 15 | 180 | 0.0 | 0.0 | 0.00 | 0.00 | 0.00 | 99 | 1017.2 |
| 20260906090057 | 15 | 180 | 0.0 | 0.0 | 0.00 | 0.00 | 0.00 | 99 | 1017.0 |
| 20260906085556 | 15 | 180 | 0.0 | 0.0 | 0.00 | 0.00 | 0.00 | 99 | 1016.8 |
| 20260906085050 | 15 | 180 | 0.0 | 0.0 | 0.00 | 0.00 | 0.00 | 99 | 1016.8 |
| 20260906084545 | 15 | 180 | 0.0 | 0.0 | 0.00 | 0.00 | 0.00 | 99 | 1016.6 |
| 20260906084044 | 15 | 180 | 0.0 | 0.0 | 0.00 | 0.00 | 0.00 | 99 | 1016.6 |
| 20260906083540 | 15 | 180 | 0.0 | 0.0 | 0.00 | 0.00 | 0.00 | 99 | 1016.6 |
| 20260906083039 | 15 | 180 | 0.0 | 0.0 | 0.00 | 0.00 | 0.00 | 99 | 1016.7 |
| 20260906082535 | 15 | 180 | 0.0 | 0.0 | 0.00 | 0.00 | 0.00 | 99 | 1016.5 |
| 20260906082031 | 15 | 180 | 0.0 | 0.0 | 0.00 | 0.00 | 0.00 | 99 | 1016.6 |
| 20260906081526 | 15 | 180 | 0.0 | 0.0 | 0.00 | 0.00 | 0.00 | 99 | 1016.5 |
| 20260906081021 | 15 | 180 | 0.0 | 0.0 | 0.00 | 0.00 | 0.00 | 99 | 1016.6 |
| 20260906080518 | 15 | 180 | 0.0 | 0.0 | 0.00 | 0.00 | 0.00 | 99 | 1016.6 |
| 20260906080013 | 15 | 180 | 0.0 | 0.0 | 0.00 | 0.00 | 0.00 | 99 | 1016.6 |
| 20260906075507 | 15 | 180 | 0.0 | 0.0 | 0.00 | 0.00 | 0.00 | 99 | 1016.5 |
| 20260906075002 | 15 | 180 | 0.0 | 0.0 | 0.00 | 0.00 | 0.00 | 99 | 1016.4 |
| 20260906074457 | 15 | 180 | 0.0 | 0.0 | 0.00 | 0.00 | 0.00 | 99 | 1016.5 |
| 20260906073955 | 15 | 180 | 0.0 | 0.0 | 0.00 | 0.00 | 0.00 | 99 | 1016.5 |
| 20260906073450 | 15 | 180 | 0.0 | 0.0 | 0.00 | 0.00 | 0.00 | 99 | 1016.5 |
| 20260906072947 | 15 | 179 | 0.0 | 0.0 | 0.00 | 0.00 | 0.00 | 98 | 1016.4 |
| 20260906072442 | 15 | 179 | 0.0 | 0.0 | 0.00 | 0.00 | 0.00 | 98 | 1016.5 |
| 20260906071938 | 15 | 179 | 0.0 | 0.0 | 0.00 | 0.00 | 0.00 | 98 | 1016.5 |
| 20260906071433 | 15 | 179 | 0.0 | 0.0 | 0.00 | 0.00 | 0.00 | 98 | 1016.6 |
| 20260906070929 | 15 | 179 | 0.0 | 0.0 | 0.00 | 0.00 | 0.00 | 98 | 1016.4 |
| 20260906070425 | 15 | 179 | 0.0 | 0.0 | 0.00 | 0.00 | 0.00 | 98 | 1016.6 |
| 20260906065921 | 15 | 179 | 0.0 | 0.0 | 0.00 | 0.00 | 0.00 | 98 | 1016.4 |
| 20260906065415 | 15 | 179 | 0.0 | 0.0 | 0.00 | 0.00 | 0.00 | 98 | 1016.6 |
| 20260906064910 | 15 | 179 | 0.0 | 0.0 | 0.00 | 0.00 | 0.00 | 98 | 1016.6 |
| 20260906064407 | 15 | 179 | 0.0 | 0.0 | 0.00 | 0.00 | 0.00 | 98 | 1016.7 |
| 20260906063901 | 15 | 179 | 0.0 | 0.0 | 0.00 | 0.00 | 0.00 | 97 | 1016.6 |
| 20260906063356 | 15 | 179 | 0.0 | 0.0 | 0.00 | 0.00 | 0.00 | 97 | 1016.6 |
| 20260906062851 | 15 | 179 | 0.0 | 0.0 | 0.00 | 0.00 | 0.00 | 97 | 1016.5 |
| 20260906062350 | 15 | 179 | 0.0 | 0.0 | 0.00 | 0.00 | 0.00 | 97 | 1016.6 |
| 20260906061846 | 16 | 179 | 0.0 | 0.0 | 0.00 | 0.00 | 0.00 | 97 | 1016.6 |
| 20260906061342 | 16 | 179 | 0.0 | 0.0 | 0.00 | 0.00 | 0.00 | 97 | 1016.5 |
| 20260906060836 | 16 | 179 | 0.0 | 0.0 | 0.00 | 0.00 | 0.00 | 97 | 1016.6 |
| 20260906060335 | 16 | 179 | 0.0 | 0.0 | 0.00 | 0.00 | 0.00 | 97 | 1016.6 |
| 20260906055830 | 16 | 179 | 0.0 | 0.0 | 0.00 | 0.00 | 0.00 | 97 | 1016.6 |
| 20260906055326 | 16 | 179 | 0.0 | 0.0 | 0.00 | 0.00 | 0.00 | 97 | 1016.5 |
| 20260906054820 | 16 | 179 | 0.0 | 0.0 | 0.00 | 0.00 | 0.00 | 97 | 1016.8 |
| 20260906054315 | 16 | 179 | 0.0 | 0.0 | 0.00 | 0.00 | 0.00 | 97 | 1016.8 |
| 20260906053812 | 16 | 179 | 0.0 | 0.0 | 0.00 | 0.00 | 0.00 | 96 | 1016.8 |
| 20260906053307 | 16 | 179 | 0.0 | 0.0 | 0.00 | 0.00 | 0.00 | 96 | 1016.5 |
| 20260906052802 | 16 | 179 | 0.0 | 0.0 | 0.00 | 0.00 | 0.00 | 96 | 1016.7 |
| 20260906052259 | 16 | 179 | 0.0 | 0.0 | 0.00 | 0.00 | 0.00 | 96 | 1016.7 |
| 20260906051756 | 16 | 179 | 0.0 | 0.0 | 0.00 | 0.00 | 0.00 | 96 | 1016.8 |
| 20260906051254 | 16 | 183 | 0.0 | 0.0 | 0.00 | 0.00 | 0.00 | 96 | 1016.8 |
| 20260906050750 | 16 | 183 | 0.0 | 0.0 | 0.00 | 0.00 | 0.00 | 96 | 1016.7 |
| 20260906050240 | 16 | 183 | 0.0 | 0.0 | 0.00 | 0.00 | 0.00 | 96 | 1016.9 |
| 20260906045738 | 16 | 183 | 0.0 | 0.0 | 0.00 | 0.00 | 0.00 | 96 | 1016.9 |
| 20260906045233 | 16 | 183 | 0.0 | 0.0 | 0.00 | 0.00 | 0.00 | 96 | 1016.7 |
| 20260906044728 | 16 | 183 | 0.0 | 0.0 | 0.00 | 0.00 | 0.00 | 96 | 1016.8 |
| 20260906044223 | 16 | 183 | 0.0 | 0.0 | 0.00 | 0.00 | 0.00 | 96 | 1016.9 |
| 20260906043720 | 16 | 183 | 0.0 | 0.0 | 0.00 | 0.00 | 0.00 | 96 | 1016.7 |
| 20260906043215 | 16 | 183 | 0.0 | 0.0 | 0.00 | 0.00 | 0.00 | 96 | 1016.7 |
| 20260906042715 | 16 | 183 | 0.0 | 0.0 | 0.00 | 0.00 | 0.00 | 96 | 1016.6 |
| 20260906042209 | 16 | 183 | 0.0 | 0.0 | 0.00 | 0.00 | 0.00 | 96 | 1016.7 |
| 20260906041704 | 16 | 183 | 0.0 | 0.0 | 0.00 | 0.00 | 0.00 | 96 | 1016.6 |
| 20260906041159 | 16 | 183 | 0.0 | 0.0 | 0.00 | 0.00 | 0.00 | 96 | 1016.5 |
| 20260906040655 | 16 | 183 | 0.0 | 0.0 | 0.00 | 0.00 | 0.00 | 96 | 1016.5 |
| 20260906040150 | 16 | 183 | 0.0 | 0.0 | 0.00 | 0.00 | 0.00 | 96 | 1016.5 |
| 20260906035645 | 15 | 182 | 0.0 | 0.0 | 0.00 | 0.00 | 0.00 | 96 | 1016.3 |
| 20260906035141 | 15 | 182 | 0.0 | 0.0 | 0.00 | 0.00 | 0.00 | 96 | 1016.5 |
| 20260906034635 | 15 | 183 | 0.0 | 0.0 | 0.00 | 0.00 | 0.00 | 96 | 1016.5 |
| 20260906034130 | 15 | 182 | 0.0 | 0.0 | 0.00 | 0.00 | 0.00 | 96 | 1016.4 |
| 20260906033626 | 15 | 182 | 0.0 | 0.0 | 0.00 | 0.00 | 0.00 | 96 | 1016.4 |
| 20260906033120 | 16 | 182 | 0.0 | 0.0 | 0.00 | 0.00 | 0.00 | 96 | 1016.3 |
| 20260906032617 | 16 | 182 | 0.0 | 0.0 | 0.00 | 0.00 | 0.00 | 96 | 1016.3 |
| 20260906032116 | 16 | 182 | 0.0 | 0.0 | 0.00 | 0.00 | 0.00 | 96 | 1016.3 |
| 20260906031612 | 16 | 182 | 0.0 | 0.0 | 0.00 | 0.00 | 0.00 | 96 | 1016.2 |
| 20260906031108 | 16 | 182 | 0.0 | 0.0 | 0.00 | 0.00 | 0.00 | 95 | 1016.4 |
| 20260906030607 | 16 | 182 | 0.0 | 0.0 | 0.00 | 0.00 | 0.00 | 95 | 1016.1 |
| 20260906025602 | 16 | 182 | 0.0 | 0.0 | 0.00 | 0.00 | 0.00 | 95 | 1016.2 |
| 20260906025100 | 15 | 182 | 0.0 | 0.0 | 0.00 | 0.00 | 0.00 | 95 | 1016.2 |
| 20260906024555 | 16 | 182 | 0.0 | 0.0 | 0.00 | 0.00 | 0.00 | 95 | 1016.2 |
| 20260906024050 | 16 | 182 | 0.0 | 0.0 | 0.00 | 0.00 | 0.00 | 95 | 1016.1 |
| 20260906023546 | 16 | 182 | 0.0 | 0.0 | 0.00 | 0.00 | 0.00 | 95 | 1016.2 |
| 20260906023040 | 16 | 182 | 0.0 | 0.0 | 0.00 | 0.00 | 0.00 | 94 | 1015.9 |
| 20260906022536 | 16 | 182 | 0.0 | 0.0 | 0.00 | 0.00 | 0.00 | 94 | 1016.1 |
| 20260906022031 | 16 | 182 | 0.0 | 0.0 | 0.00 | 0.00 | 0.00 | 93 | 1016.0 |
| 20260906021526 | 16 | 182 | 0.0 | 0.0 | 0.00 | 0.00 | 0.00 | 93 | 1016.1 |
| 20260906021020 | 16 | 182 | 0.0 | 0.0 | 0.00 | 0.00 | 0.00 | 93 | 1016.1 |
| 20260906020519 | 16 | 182 | 0.0 | 0.0 | 0.00 | 0.00 | 0.00 | 93 | 1016.1 |
| 20260906020019 | 16 | 182 | 0.0 | 0.0 | 0.00 | 0.00 | 0.00 | 92 | 1015.9 |
| 20260906015518 | 16 | 182 | 0.0 | 0.0 | 0.00 | 0.00 | 0.00 | 92 | 1016.1 |
| 20260906015018 | 16 | 182 | 0.0 | 0.0 | 0.00 | 0.00 | 0.00 | 92 | 1016.1 |
| 20260906014513 | 16 | 182 | 0.0 | 0.0 | 0.00 | 0.00 | 0.00 | 92 | 1016.0 |
| 20260906014009 | 16 | 182 | 0.0 | 0.0 | 0.00 | 0.00 | 0.00 | 92 | 1015.8 |
| 20260906013504 | 16 | 182 | 0.0 | 0.0 | 0.00 | 0.00 | 0.00 | 92 | 1015.8 |
| 20260906013000 | 16 | 182 | 0.0 | 0.0 | 0.00 | 0.00 | 0.00 | 92 | 1016.0 |
| 20260906012455 | 16 | 183 | 0.0 | 0.0 | 0.00 | 0.00 | 0.00 | 91 | 1016.0 |
| 20260906011954 | 16 | 183 | 0.0 | 0.0 | 0.00 | 0.00 | 0.00 | 91 | 1015.8 |
| 20260906011449 | 17 | 183 | 0.0 | 0.0 | 0.00 | 0.00 | 0.00 | 91 | 1015.8 |
| 20260906010944 | 17 | 183 | 0.0 | 0.0 | 0.00 | 0.00 | 0.00 | 91 | 1015.8 |
| 20260906010439 | 17 | 183 | 0.0 | 0.0 | 0.00 | 0.00 | 0.00 | 91 | 1015.9 |
| 20260906005935 | 16 | 183 | 0.0 | 0.0 | 0.00 | 0.00 | 0.00 | 91 | 1015.7 |
| 20260906005430 | 17 | 183 | 0.0 | 0.0 | 0.00 | 0.00 | 0.00 | 90 | 1015.8 |
| 20260906004928 | 17 | 183 | 0.0 | 0.0 | 0.00 | 0.00 | 0.00 | 90 | 1015.9 |
| 20260906004422 | 17 | 183 | 0.0 | 0.0 | 0.00 | 0.00 | 0.00 | 90 | 1015.6 |
| 20260906003919 | 17 | 183 | 0.0 | 0.0 | 0.00 | 0.00 | 0.00 | 89 | 1015.6 |
| 20260906003414 | 17 | 183 | 0.0 | 0.0 | 0.00 | 0.00 | 0.00 | 89 | 1015.6 |
| 20260906002909 | 17 | 183 | 0.0 | 0.0 | 0.00 | 0.00 | 0.00 | 88 | 1015.7 |
| 20260906002409 | 17 | 183 | 0.0 | 0.0 | 0.00 | 0.00 | 0.00 | 88 | 1015.6 |
| 20260906001904 | 17 | 183 | 0.0 | 0.0 | 0.00 | 0.00 | 0.00 | 88 | 1015.7 |
| 20260906001400 | 17 | 182 | 0.0 | 0.0 | 0.00 | 0.00 | 0.00 | 87 | 1015.6 |
| 20260906000859 | 18 | 188 | 0.0 | 0.0 | 0.00 | 0.00 | 0.00 | 86 | 1015.6 |
| 20260906000355 | 18 | 187 | 0.0 | 0.0 | 0.00 | 0.00 | 0.00 | 86 | 1015.6 |
| 20260905235849 | 18 | 187 | 0.0 | 0.0 | 0.00 | 0.00 | 0.00 | 85 | 1015.6 |
| 20260905235343 | 18 | 187 | 0.0 | 0.0 | 0.00 | 0.00 | 0.00 | 84 | 1015.6 |
| 20260905234838 | 18 | 187 | 0.0 | 0.0 | 0.00 | 0.00 | 0.00 | 84 | 1015.9 |
| 20260905234334 | 18 | 187 | 0.0 | 0.0 | 0.00 | 0.00 | 0.00 | 83 | 1015.8 |
| 20260905233829 | 19 | 187 | 0.0 | 0.0 | 0.00 | 0.00 | 0.00 | 82 | 1015.6 |
| 20260905233324 | 19 | 187 | 0.0 | 0.0 | 0.00 | 0.00 | 0.00 | 81 | 1015.6 |
| 20260905232822 | 20 | 187 | 0.0 | 0.0 | 0.00 | 0.00 | 0.00 | 80 | 1015.7 |
| 20260905232319 | 20 | 186 | 0.0 | 0.0 | 0.00 | 0.00 | 0.00 | 78 | 1015.7 |
| 20260905231815 | 20 | 183 | 0.0 | 0.0 | 0.00 | 0.00 | 0.00 | 78 | 1015.8 |
| 20260905231310 | 20 | 209 | 1.6 | 1.6 | 0.00 | 0.00 | 0.00 | 75 | 1015.7 |
| 20260905230806 | 20 | 191 | 0.0 | 0.0 | 0.00 | 0.00 | 0.00 | 74 | 1015.6 |
| 20260905230304 | 21 | 193 | 0.0 | 0.0 | 0.00 | 0.00 | 0.00 | 72 | 1015.5 |
| 20260905225803 | 21 | 192 | 0.0 | 0.0 | 0.00 | 0.00 | 0.00 | 70 | 1015.6 |
| 20260905225258 | 21 | 191 | 0.0 | 0.0 | 0.00 | 0.00 | 0.00 | 68 | 1015.5 |
| 20260905224758 | 22 | 213 | 1.6 | 3.2 | 0.00 | 0.00 | 0.00 | 65 | 1015.7 |
| 20260905224254 | 23 | 211 | 0.0 | 1.6 | 0.00 | 0.00 | 0.00 | 63 | 1015.5 |
| 20260905223749 | 22 | 191 | 0.0 | 0.0 | 0.00 | 0.00 | 0.00 | 63 | 1015.5 |
| 20260905223246 | 22 | 234 | 1.6 | 3.2 | 0.00 | 0.00 | 0.00 | 61 | 1015.6 |
| 20260905222741 | 22 | 192 | 1.6 | 1.6 | 0.00 | 0.00 | 0.00 | 64 | 1015.4 |
| 20260905222240 | 22 | 224 | 3.2 | 3.2 | 0.00 | 0.00 | 0.00 | 63 | 1015.7 |
| 20260905221736 | 23 | 222 | 1.6 | 1.6 | 0.00 | 0.00 | 0.00 | 63 | 1015.5 |
| 20260905221233 | 23 | 217 | 1.6 | 1.6 | 0.00 | 0.00 | 0.00 | 63 | 1015.4 |
| 20260905220729 | 22 | 224 | 1.6 | 3.2 | 0.00 | 0.00 | 0.00 | 63 | 1015.6 |
| 20260905220225 | 22 | 271 | 4.8 | 6.4 | 0.00 | 0.00 | 0.00 | 62 | 1015.3 |
| 20260905215724 | 23 | 209 | 3.2 | 4.8 | 0.00 | 0.00 | 0.00 | 62 | 1015.3 |
| 20260905215220 | 22 | 207 | 1.6 | 1.6 | 0.00 | 0.00 | 0.00 | 63 | 1015.3 |
| 20260905214715 | 22 | 210 | 3.2 | 3.2 | 0.00 | 0.00 | 0.00 | 63 | 1015.1 |
| 20260905214211 | 22 | 263 | 1.6 | 3.2 | 0.00 | 0.00 | 0.00 | 64 | 1015.2 |
| 20260905213706 | 23 | 200 | 0.0 | 1.6 | 0.00 | 0.00 | 0.00 | 64 | 1015.2 |